EW3857 Weather Reports


Display with metric or nautical units.
time (UTC)temp
F
wind
direction
speed
MPH
gust
MPH
rain 1hr
in
rain 24hr
in
rain mn
in
humidity
%
barometer
mb
20260507145153 58 332 1.0 2.0 0.00 0.42 0.42 96 1016.8
20260507144649 58 301 3.0 3.0 0.00 0.42 0.42 96 1016.8
20260507144148 58 301 3.0 3.0 0.00 0.42 0.42 97 1016.7
20260507143644 58 281 1.0 1.0 0.00 0.42 0.42 97 1016.7
20260507143141 58 272 2.0 2.0 0.00 0.42 0.42 97 1016.7
20260507142636 58 11 3.0 5.0 0.00 0.42 0.42 97 1016.6
20260507142133 58 326 2.0 2.0 0.00 0.42 0.42 97 1016.4
20260507141629 58 347 2.0 2.0 0.00 0.42 0.42 97 1016.5
20260507141127 57 325 3.0 3.0 0.00 0.42 0.42 97 1016.1
20260507140623 58 340 3.0 3.0 0.00 0.42 0.42 98 1016.2
20260507140120 58 350 5.0 6.0 0.00 0.42 0.42 98 1015.9
20260507135618 57 282 0.0 1.0 0.00 0.42 0.42 98 1016.0
20260507135115 57 316 2.0 2.0 0.00 0.42 0.42 98 1016.3
20260507134611 57 334 1.0 2.0 0.00 0.42 0.42 98 1016.0
20260507134107 57 349 1.0 1.0 0.00 0.42 0.42 98 1016.0
20260507133603 57 293 1.0 1.0 0.00 0.42 0.42 99 1016.2
20260507133101 57 255 1.0 2.0 0.00 0.42 0.42 99 1016.0
20260507132557 57 337 3.0 3.0 0.00 0.42 0.42 99 1016.0
20260507132054 57 11 8.0 10.0 0.00 0.42 0.42 99 1015.7
20260507131551 57 277 1.0 1.0 0.07 0.42 0.42 99 1016.0
20260507131049 57 283 2.0 2.0 0.07 0.42 0.42 99 1016.0
20260507130545 57 312 1.0 1.0 0.00 0.41 0.41 99 1015.7
20260507130043 57 272 1.0 2.0 0.00 0.41 0.41 99 1015.8
20260507125542 57 277 1.0 1.0 0.00 0.41 0.41 99 1015.8
20260507125039 57 341 2.0 2.0 0.00 0.41 0.41 99 1015.8
20260507124535 57 293 0.0 0.0 0.00 0.41 0.41 99 1015.8
20260507124033 57 270 1.0 1.0 0.00 0.41 0.41 99 1015.7
20260507123531 57 299 1.0 1.0 0.00 0.41 0.41 99 1015.6
20260507123027 57 269 0.0 1.0 0.00 0.41 0.41 99 1015.8
20260507122522 57 279 1.0 1.0 0.05 0.41 0.41 99 1015.6
20260507122019 57 277 1.0 2.0 0.05 0.41 0.41 99 1015.2
20260507121514 57 276 1.0 2.0 0.05 0.41 0.41 99 1015.1
20260507121010 57 277 2.0 2.0 0.00 0.40 0.40 99 1015.2
20260507120507 57 315 1.0 1.0 0.00 0.40 0.40 99 1015.3
20260507120004 57 303 2.0 3.0 0.00 0.40 0.40 99 1015.1
20260507115500 57 280 0.0 1.0 0.00 0.40 0.40 99 1014.8
20260507114955 57 284 0.0 0.0 0.00 0.40 0.40 99 1014.9
20260507114452 57 328 3.0 3.0 0.00 0.40 0.40 99 1014.8
20260507113949 57 283 0.0 0.0 0.00 0.40 0.40 99 1014.4
20260507113446 57 303 1.0 1.0 0.00 0.40 0.40 99 1014.6
20260507112943 57 298 1.0 1.0 0.00 0.40 0.40 99 1014.6
20260507112441 57 257 0.0 0.0 0.00 0.40 0.40 99 1014.8
20260507111938 57 260 0.0 0.0 0.00 0.40 0.40 99 1014.7
20260507111435 57 280 0.0 0.0 0.00 0.40 0.40 99 1014.2
20260507110931 58 8 6.0 7.0 0.00 0.40 0.40 99 1014.0
20260507110427 57 2 3.0 3.0 0.12 0.40 0.40 99 1014.0
20260507105924 58 302 0.0 0.0 0.26 0.40 0.40 99 1014.8
20260507105421 58 271 0.0 0.0 0.26 0.38 0.38 99 1014.9
20260507104918 58 17 0.0 0.0 0.31 0.37 0.37 99 1013.7
20260507104415 58 205 1.0 1.0 0.28 0.34 0.34 99 1014.6
20260507103910 58 261 0.0 0.0 0.28 0.32 0.32 99 1015.2
20260507103407 58 341 1.0 1.0 0.42 0.29 0.29 99 1014.8
20260507102903 58 283 1.0 1.0 0.38 0.27 0.27 99 1014.8
20260507102400 58 291 0.0 0.0 0.12 0.22 0.22 99 1014.4
20260507101857 58 285 1.0 1.0 0.12 0.21 0.21 99 1013.7
20260507101356 58 356 1.0 2.0 0.31 0.20 0.20 99 1013.4
20260507100854 58 345 2.0 2.0 0.42 0.19 0.19 99 1013.8
20260507100351 58 289 0.0 0.0 0.31 0.16 0.16 99 1013.7
20260507095849 58 334 2.0 2.0 0.12 0.13 0.13 99 1013.6
20260507095346 58 308 0.0 1.0 0.00 0.11 0.11 99 1014.5
20260507094843 58 269 1.0 1.0 0.00 0.11 0.11 99 1014.3
20260507094339 58 323 2.0 2.0 0.00 0.11 0.11 99 1013.4
20260507093837 58 2 2.0 3.0 0.00 0.11 0.11 99 1013.5
20260507093335 58 11 1.0 2.0 0.00 0.11 0.11 99 1013.6
20260507092833 58 342 1.0 2.0 0.00 0.11 0.11 99 1014.0
20260507092329 58 262 0.0 0.0 0.00 0.11 0.11 99 1014.4
20260507091825 58 261 0.0 0.0 0.00 0.11 0.11 99 1014.2
20260507091322 58 280 0.0 0.0 0.00 0.11 0.11 99 1014.2
20260507090817 58 335 0.0 1.0 0.00 0.11 0.11 99 1013.8
20260507090314 58 289 0.0 1.0 0.07 0.11 0.11 99 1014.0
20260507085811 58 357 3.0 3.0 0.12 0.11 0.11 99 1013.6
20260507085308 58 257 0.0 0.0 0.12 0.10 0.10 99 1014.1
20260507084806 58 295 1.0 1.0 0.24 0.10 0.10 99 1014.3
20260507084301 58 288 2.0 2.0 0.47 0.09 0.09 99 1014.3
20260507083759 58 260 2.0 3.0 0.17 0.04 0.04 99 1014.6
20260507083255 58 281 8.0 11.0 0.00 0.01 0.01 99 1015.0
20260507082751 58 277 2.0 2.0 0.00 0.01 0.01 99 1014.0
20260507082247 58 281 0.0 0.0 0.00 0.01 0.01 99 1013.3
20260507081744 59 268 0.0 1.0 0.00 0.01 0.01 99 1013.3
20260507081240 59 271 2.0 2.0 0.00 0.01 0.01 99 1013.6
20260507080737 59 8 4.0 5.0 0.00 0.01 0.01 99 1013.3
20260507080233 59 288 2.0 3.0 0.00 0.01 0.01 99 1013.4
20260507075729 59 288 1.0 1.0 0.00 0.01 0.01 99 1013.6
20260507075225 59 248 3.0 3.0 0.00 0.01 0.01 99 1013.5
20260507074722 59 300 4.0 6.0 0.00 0.01 0.01 99 1013.7
20260507074220 59 295 2.0 2.0 0.00 0.01 0.01 99 1013.8
20260507073716 59 277 0.0 0.0 0.00 0.01 0.01 99 1014.3
20260507073213 59 272 4.0 5.0 0.00 0.01 0.01 99 1014.0
20260507072711 59 281 1.0 1.0 0.00 0.01 0.01 99 1013.6
20260507072208 60 285 2.0 2.0 0.00 0.01 0.01 99 1013.6
20260507071705 60 291 0.0 0.0 0.00 0.01 0.01 99 1013.1
20260507071201 60 270 0.0 0.0 0.00 0.01 0.01 99 1013.3
20260507070659 60 292 0.0 0.0 0.00 0.01 0.01 99 1013.7
20260507070155 60 266 3.0 3.0 0.00 0.01 0.01 99 1013.9
20260507065652 60 291 2.0 2.0 0.00 0.01 0.01 99 1014.0
20260507065149 61 271 1.0 1.0 0.00 0.01 0.01 99 1014.1
20260507064646 61 283 0.0 1.0 0.00 0.01 0.01 99 1014.1
20260507064144 61 283 0.0 1.0 0.00 0.01 0.01 99 1013.8
20260507063642 61 309 2.0 2.0 0.00 0.01 0.01 99 1013.7
20260507063138 61 279 1.0 1.0 0.00 0.01 0.01 99 1013.9
20260507062635 62 278 2.0 2.0 0.00 0.01 0.01 99 1014.4
20260507062133 62 304 3.0 3.0 0.00 0.01 0.01 99 1014.1
20260507061631 62 278 1.0 1.0 0.00 0.01 0.01 99 1014.4
20260507061128 63 304 2.0 2.0 0.00 0.01 0.01 99 1014.4
20260507060626 63 283 0.0 0.0 0.00 0.01 0.01 99 1014.4
20260507060122 63 293 2.0 2.0 0.00 0.01 0.01 99 1014.8
20260507055618 64 348 1.0 1.0 0.00 0.01 0.01 99 1013.8
20260507055114 64 266 0.0 0.0 0.00 0.01 0.01 99 1014.9
20260507054610 64 272 0.0 0.0 0.00 0.01 0.01 99 1014.5
20260507054108 66 327 2.0 2.0 0.07 0.01 0.01 99 1013.8
20260507053605 66 260 0.0 0.0 0.07 0.01 0.01 99 1014.3
20260507053104 66 264 0.0 0.0 0.07 0.01 0.01 99 1014.4
20260507052601 66 301 1.0 2.0 0.00 0.00 0.00 99 1014.3
20260507052058 66 282 0.0 0.0 0.00 0.00 0.00 99 1014.4
20260507051555 66 272 0.0 0.0 0.00 0.00 0.00 99 1014.4
20260507051052 66 272 0.0 0.0 0.00 0.00 0.00 99 1014.6
20260507050549 66 282 0.0 0.0 0.07 0.00 0.00 99 1014.2
20260507050045 66 267 0.0 0.0 0.35 0.54 0.54 99 1014.2
20260507045542 66 183 2.0 3.0 0.54 0.54 0.54 99 1014.4
20260507045039 66 218 1.0 1.0 0.35 0.49 0.49 99 1014.9
20260507044535 66 278 0.0 0.0 0.31 0.45 0.45 99 1015.4
20260507044032 66 271 0.0 1.0 0.19 0.43 0.43 99 1015.1
20260507043528 66 283 0.0 0.0 0.00 0.40 0.40 99 1014.2
20260507043026 66 283 2.0 2.0 0.00 0.40 0.40 99 1015.2
20260507042522 66 245 0.0 0.0 0.00 0.40 0.40 99 1014.1
20260507042017 66 247 0.0 0.0 0.05 0.40 0.40 99 1014.4
20260507041515 66 113 0.0 1.0 0.47 0.40 0.40 99 1014.2
20260507041011 66 189 0.0 0.0 0.47 0.39 0.39 99 1014.5
20260507040507 66 154 3.0 3.0 0.17 0.34 0.34 99 1015.2
20260507040003 66 280 1.0 2.0 0.00 0.31 0.31 99 1015.7
20260507035500 66 291 1.0 1.0 0.00 0.31 0.31 99 1014.6
20260507034956 66 262 0.0 0.0 0.00 0.31 0.31 99 1014.4
20260507034453 66 130 2.0 2.0 0.07 0.31 0.31 99 1014.4
20260507033951 66 266 0.0 0.0 0.07 0.31 0.31 99 1014.8
20260507033449 66 204 1.0 1.0 0.00 0.30 0.30 99 1014.5
20260507032946 66 299 0.0 0.0 0.00 0.30 0.30 99 1014.1
20260507032443 66 317 0.0 1.0 0.00 0.30 0.30 99 1014.2
20260507031939 66 248 0.0 0.0 0.00 0.30 0.30 99 1014.2
20260507031436 66 281 0.0 0.0 0.00 0.30 0.30 99 1014.5
20260507030933 66 281 0.0 0.0 0.00 0.30 0.30 99 1014.6
20260507030430 66 282 0.0 0.0 0.00 0.30 0.30 99 1014.6
20260507025927 66 282 0.0 0.0 0.00 0.30 0.30 99 1014.8
20260507025424 66 290 0.0 0.0 0.00 0.30 0.30 99 1014.6
20260507024922 66 290 0.0 0.0 0.00 0.30 0.30 99 1014.4
20260507024419 66 290 0.0 0.0 0.00 0.30 0.30 99 1014.4
20260507023915 66 291 0.0 0.0 0.00 0.30 0.30 99 1014.4
20260507023412 66 315 1.0 1.0 0.00 0.30 0.30 99 1014.5
20260507022909 66 301 0.0 0.0 0.00 0.30 0.30 99 1014.4
20260507022406 66 301 0.0 0.0 0.00 0.30 0.30 99 1014.7
20260507021901 66 301 1.0 1.0 0.00 0.30 0.30 99 1014.8
20260507021357 66 270 0.0 0.0 0.00 0.30 0.30 99 1015.0
20260507020855 66 269 0.0 0.0 0.00 0.30 0.30 99 1015.1
20260507020351 66 272 0.0 0.0 0.00 0.30 0.30 99 1014.7
20260507015848 66 273 1.0 1.0 0.00 0.30 0.30 99 1014.8
20260507015346 66 292 0.0 0.0 0.00 0.30 0.30 99 1015.0
20260507014843 66 349 2.0 2.0 0.00 0.30 0.30 99 1014.4
20260507014339 66 260 0.0 0.0 0.00 0.30 0.30 99 1014.3
20260507013836 66 289 0.0 0.0 0.00 0.30 0.30 99 1014.3
20260507013333 66 291 0.0 0.0 0.00 0.30 0.30 99 1014.5
20260507012831 66 302 0.0 1.0 0.00 0.30 0.30 99 1014.3
20260507012326 66 342 2.0 2.0 0.00 0.30 0.30 99 1014.5
20260507011824 66 277 0.0 0.0 0.00 0.30 0.30 99 1014.4
20260507011320 66 288 0.0 0.0 0.00 0.30 0.30 99 1014.8
20260507010820 66 288 0.0 0.0 0.00 0.30 0.30 99 1014.7
20260507010315 66 288 0.0 0.0 0.00 0.30 0.30 99 1014.8
20260507005813 66 288 0.0 0.0 0.00 0.30 0.30 99 1014.9
20260507005309 66 288 0.0 0.0 0.00 0.30 0.30 99 1014.7
20260507004801 66 291 0.0 0.0 0.00 0.30 0.30 99 1014.5
20260507004258 66 271 0.0 0.0 0.00 0.30 0.30 99 1014.8
20260507003754 66 283 0.0 0.0 0.00 0.30 0.30 99 1015.0
20260507003249 66 282 0.0 0.0 0.00 0.30 0.30 99 1015.0
20260507002745 66 278 0.0 0.0 0.00 0.30 0.30 99 1015.2
20260507002242 66 279 0.0 0.0 0.00 0.30 0.30 98 1015.0
20260507001739 66 281 1.0 1.0 0.00 0.30 0.30 98 1015.0
20260507001236 66 280 0.0 0.0 0.00 0.30 0.30 98 1015.0
20260507000733 66 271 0.0 0.0 0.00 0.30 0.30 98 1015.0
20260507000228 66 273 0.0 0.0 0.00 0.30 0.30 98 1015.1
20260506235725 66 343 1.0 1.0 0.00 0.30 0.30 98 1015.2
20260506235220 66 296 0.0 0.0 0.00 0.30 0.30 98 1015.1
20260506234718 66 284 0.0 0.0 0.00 0.30 0.30 98 1014.9
20260506234215 66 353 1.0 2.0 0.00 0.30 0.30 98 1014.7
20260506233713 66 10 1.0 2.0 0.00 0.30 0.30 98 1014.6
20260506233209 66 277 0.0 0.0 0.00 0.30 0.30 98 1014.6
20260506232707 66 292 0.0 0.0 0.00 0.30 0.30 98 1014.8
20260506232200 66 299 0.0 0.0 0.00 0.30 0.30 98 1014.9
20260506231658 66 15 2.0 2.0 0.00 0.30 0.30 98 1014.2
20260506231157 66 337 3.0 3.0 0.00 0.30 0.30 98 1014.4
20260506230653 66 301 1.0 1.0 0.00 0.30 0.30 98 1014.8
20260506230149 66 302 0.0 1.0 0.00 0.30 0.30 98 1014.7
20260506225646 66 346 3.0 3.0 0.07 0.30 0.30 98 1014.5
20260506225143 66 317 1.0 2.0 0.07 0.30 0.30 98 1014.4
20260506224639 66 358 3.0 3.0 0.12 0.30 0.30 97 1014.6
20260506224136 66 34 1.0 2.0 0.40 0.29 0.29 97 1014.7
20260506223632 66 50 2.0 2.0 0.42 0.28 0.28 97 1014.4
20260506223128 66 274 0.0 0.0 0.12 0.23 0.23 97 1014.6
20260506222626 66 352 2.0 2.0 0.05 0.21 0.21 97 1013.8
20260506222122 66 40 4.0 6.0 0.47 0.21 0.21 97 1013.9
20260506221620 66 60 1.0 2.0 0.61 0.20 0.20 97 1013.6
20260506221118 66 260 0.0 0.0 0.47 0.14 0.14 96 1013.9
20260506220614 66 336 3.0 3.0 0.50 0.11 0.11 96 1014.1
20260506220109 66 285 1.0 2.0 0.35 0.06 0.06 95 1014.2
20260506215606 66 347 5.0 6.0 0.17 0.03 0.03 94 1014.2
20260506215101 67 19 2.0 2.0 0.00 0.00 0.00 93 1014.0
20260506214559 67 354 5.0 6.0 0.00 0.00 0.00 92 1013.9
20260506214056 67 339 2.0 2.0 0.00 0.00 0.00 92 1013.8
20260506213554 67 357 3.0 3.0 0.00 0.00 0.00 92 1013.8
20260506213051 67 357 3.0 3.0 0.00 0.00 0.00 92 1013.3
20260506212548 67 25 2.0 2.0 0.00 0.00 0.00 92 1013.2
20260506212042 67 300 1.0 2.0 0.00 0.00 0.00 91 1013.7
20260506211539 68 3 5.0 7.0 0.00 0.00 0.00 90 1013.6
20260506211036 68 339 3.0 5.0 0.00 0.00 0.00 90 1013.6
20260506210532 68 358 6.0 7.0 0.00 0.00 0.00 89 1013.4
20260506210029 68 42 1.0 1.0 0.00 0.00 0.00 90 1013.7
20260506205526 68 343 1.0 1.0 0.00 0.00 0.00 90 1013.5
20260506205021 68 42 2.0 2.0 0.00 0.00 0.00 90 1013.2
20260506204520 68 36 2.0 2.0 0.00 0.00 0.00 90 1013.0
20260506204016 68 332 3.0 3.0 0.00 0.00 0.00 90 1013.2
20260506203515 68 359 5.0 6.0 0.00 0.00 0.00 90 1013.4
20260506203010 68 320 3.0 3.0 0.00 0.00 0.00 91 1013.9
20260506202508 68 22 2.0 2.0 0.00 0.00 0.00 90 1013.6
20260506202004 68 50 4.0 6.0 0.00 0.00 0.00 90 1014.1
20260506201502 69 42 3.0 3.0 0.00 0.00 0.00 90 1014.1
20260506200958 69 1 3.0 3.0 0.00 0.00 0.00 89 1014.3
20260506200455 70 10 5.0 5.0 0.00 0.00 0.00 88 1014.6
20260506195951 70 287 1.0 1.0 0.00 0.00 0.00 87 1014.8
20260506195448 71 306 1.0 1.0 0.00 0.00 0.00 87 1014.4
20260506194945 70 349 3.0 3.0 0.00 0.00 0.00 88 1014.3
20260506194442 70 18 3.0 5.0 0.00 0.00 0.00 89 1014.3
20260506193939 71 13 2.0 3.0 0.00 0.00 0.00 88 1014.4
20260506193436 71 17 0.0 1.0 0.00 0.00 0.00 87 1014.5
20260506192932 71 317 0.0 1.0 0.00 0.00 0.00 87 1014.7
20260506192429 71 357 6.0 7.0 0.00 0.00 0.00 86 1014.6
20260506191926 72 336 2.0 2.0 0.00 0.00 0.00 86 1014.8
20260506191422 72 248 1.0 1.0 0.00 0.00 0.00 86 1015.0
20260506190919 73 320 3.0 5.0 0.00 0.00 0.00 84 1014.9
20260506190416 76 333 2.0 2.0 0.00 0.00 0.00 84 1014.8
20260506185913 77 313 1.0 1.0 0.00 0.00 0.00 81 1014.6
20260506185410 78 283 0.0 0.0 0.00 0.00 0.00 80 1014.9
20260506184907 77 266 0.0 0.0 0.00 0.00 0.00 81 1014.8
20260506184404 77 261 0.0 0.0 0.00 0.00 0.00 81 1014.7
20260506183901 77 228 2.0 2.0 0.00 0.00 0.00 81 1014.8
20260506183356 77 269 0.0 0.0 0.00 0.00 0.00 81 1015.2
20260506182854 77 220 2.0 2.0 0.00 0.00 0.00 81 1015.2
20260506182351 77 274 0.0 1.0 0.00 0.00 0.00 81 1015.3
20260506181848 77 229 2.0 3.0 0.00 0.00 0.00 82 1015.1
20260506181346 76 218 3.0 5.0 0.00 0.00 0.00 81 1014.8
20260506180843 75 238 1.0 1.0 0.00 0.00 0.00 84 1014.9
20260506180339 75 266 2.0 2.0 0.00 0.00 0.00 84 1015.1
20260506175835 75 208 2.0 2.0 0.00 0.00 0.00 84 1015.1
20260506175332 75 257 0.0 0.0 0.00 0.00 0.00 84 1015.1
20260506174830 75 221 3.0 3.0 0.00 0.00 0.00 84 1015.3
20260506174327 75 244 2.0 2.0 0.00 0.00 0.00 83 1015.3
20260506173824 75 241 0.0 0.0 0.00 0.00 0.00 84 1015.1
20260506173321 75 239 2.0 2.0 0.00 0.00 0.00 84 1015.5
20260506172818 74 236 2.0 2.0 0.00 0.00 0.00 84 1015.6
20260506172315 74 249 0.0 1.0 0.00 0.00 0.00 84 1015.6
20260506171812 74 254 1.0 1.0 0.00 0.00 0.00 84 1015.5
20260506171309 73 255 1.0 1.0 0.00 0.00 0.00 85 1015.7
20260506170807 73 264 0.0 1.0 0.00 0.00 0.00 84 1015.8
20260506170303 73 252 1.0 2.0 0.00 0.00 0.00 84 1015.7
20260506165802 73 216 0.0 1.0 0.00 0.00 0.00 85 1015.4
20260506165259 73 232 2.0 2.0 0.00 0.00 0.00 84 1015.5
20260506164755 73 234 2.0 2.0 0.00 0.00 0.00 85 1015.5
20260506164252 73 231 2.0 3.0 0.00 0.00 0.00 85 1015.3
20260506163749 73 224 3.0 3.0 0.00 0.00 0.00 84 1015.1
20260506163244 74 261 0.0 0.0 0.00 0.00 0.00 84 1015.3
20260506162740 74 230 2.0 2.0 0.00 0.00 0.00 83 1015.4
20260506162238 74 222 2.0 2.0 0.00 0.00 0.00 83 1015.0
20260506161730 74 254 2.0 2.0 0.00 0.00 0.00 83 1015.1
20260506161227 74 271 0.0 0.0 0.00 0.00 0.00 83 1015.1
20260506160724 73 223 1.0 2.0 0.00 0.00 0.00 84 1015.2
20260506160221 73 254 0.0 1.0 0.00 0.00 0.00 84 1015.5
20260506155719 73 268 0.0 0.0 0.00 0.00 0.00 84 1015.5
20260506155216 72 246 1.0 2.0 0.00 0.00 0.00 84 1015.3
20260506153318 72 220 3.0 7.0 0.00 0.00 0.00 85 1015.3
20260506152815 72 203 1.0 2.0 0.00 0.00 0.00 85 1015.7
20260506152312 72 208 4.0 6.0 0.00 0.00 0.00 85 1015.6
20260506151811 72 163 3.0 5.0 0.00 0.00 0.00 85 1015.6
20260506151307 72 200 5.0 7.0 0.00 0.00 0.00 86 1015.3
20260506150804 71 214 4.0 6.0 0.00 0.00 0.00 86 1015.3
20260506150304 71 220 3.0 5.0 0.00 0.00 0.00 87 1015.5
20260506145758 71 260 2.0 3.0 0.00 0.00 0.00 87 1015.7